Home > Weather > Phnom Penh > Past weeks

Flag for Cambodia Weather for the Past 2 Weeks in Phnom Penh, Cambodia

Now
99 °F

Scattered clouds.


Feels Like: 108 °F
Forecast: 83 / 98 °F
Wind: 5 mph from North

Location: Phnom-Penh / Pochentong

Current Time: May 4, 2016 at 1:02:55 PM

Latest Report: May 4, 2016 at 12:00 PM


Visibility: N/A

Pressure: 29.77 "Hg

Humidity: 42%

Dew Point: 72 °F

Location of Phnom PenhLocation

Historic Weather in Phnom Penh — Graph

°F

Phnom Penh Temperature Yesterday

Maximum temperature yesterday: 104 °F (at 1:30 PM)
Minimum temperature yesterday: 82 °F (at 6:00 AM)
Average temperature yesterday: 92 °F

High & Low Weather Summary for the Past Weeks

 TemperatureHumidityPressure
High104 °F (May 3, 1:30 PM)89% (Apr 29, 6:00 AM)29.89 "Hg (Apr 29, 6:00 AM)
Low79 °F (Apr 29, 6:00 AM)29% (Apr 24, 2:30 PM)29.59 "Hg (Apr 27, 4:00 PM)
Average91 °F57%29.75 "Hg
* Reported Apr 19 11:00 AM — May 4 11:00 AM, Phnom Penh, Weather by CustomWeather, © 2016

Note: Actual official high and low records may vary slightly from our data, if they occured in-between our weather recording intervals... More about our weather records

Advertising

Phnom Penh Weather History for the Previous 24 Hours

Scroll right to see more
 ConditionsComfort  
Time TempWeatherWind HumidityBarometerVisibility
11:00 AM
Wed, May 4
99 °FScattered clouds.8 mph42%29.80 "HgN/A
10:00 AM95 °FScattered clouds.8 mph47%29.80 "HgN/A
9:30 AM93 °FScattered clouds.7 mph53%29.83 "HgN/A
9:00 AM91 °FScattered clouds.8 mphN/A29.83 "HgN/A
8:30 AM90 °FScattered clouds.7 mph63%29.83 "HgN/A
8:00 AM88 °FScattered clouds.6 mph70%29.83 "HgN/A
7:30 AM86 °FScattered clouds.8 mph75%29.83 "HgN/A
7:00 AM86 °FScattered clouds.5 mph79%29.80 "HgN/A
6:30 AM84 °FScattered clouds.3 mph84%29.80 "HgN/A
6:00 AM82 °FScattered clouds.3 mphN/A29.77 "HgN/A
3:00 AM84 °FClear.6 mph74%29.74 "Hg10 mi
2:30 AM84 °FClear.5 mph74%29.74 "Hg10 mi
2:00 AM86 °FClear.2 mph70%29.74 "Hg10 mi
1:30 AM86 °FClear.3 mph70%29.74 "Hg10 mi
1:00 AM86 °FClear.3 mph70%29.77 "Hg10 mi
12:30 AM86 °FClear.2 mph70%29.77 "Hg10 mi
12:00 AM86 °FClear.3 mph70%29.77 "Hg10 mi
11:30 PM
Tue, May 3
88 °FClear.5 mph62%29.77 "Hg10 mi
11:00 PM88 °FClear.3 mph62%29.80 "Hg10 mi
10:30 PM88 °FClear.3 mph62%29.80 "Hg10 mi
10:00 PM88 °FClear.5 mph62%29.80 "Hg10 mi
9:30 PM90 °FClear.8 mph59%29.77 "Hg10 mi
9:00 PM90 °FClear.8 mph59%29.77 "Hg10 mi
8:30 PM90 °FClear.6 mph59%29.74 "Hg10 mi
8:00 PM90 °FClear.7 mph59%29.74 "Hg10 mi
7:30 PM90 °FPassing clouds.9 mph59%29.74 "HgN/A
6:30 PM91 °FPartly cloudy.14 mph52%29.68 "HgN/A
6:00 PM91 °FBroken clouds.14 mph52%29.68 "HgN/A
5:30 PM93 °FScattered clouds.18 mph53%29.68 "HgN/A
5:00 PM100 °FScattered clouds.14 mph35%29.65 "HgN/A
4:30 PM102 °FScattered clouds.13 mph33%29.65 "HgN/A
4:00 PM102 °FScattered clouds.12 mph33%29.65 "HgN/A
3:30 PM102 °FScattered clouds.10 mph33%29.65 "HgN/A
3:00 PM104 °FScattered clouds.6 mph31%29.68 "HgN/A
2:30 PM102 °FScattered clouds.9 mph33%29.68 "HgN/A
2:00 PM102 °FScattered clouds.9 mph33%29.71 "HgN/A
1:30 PM104 °FScattered clouds.9 mph29%29.71 "HgN/A
1:00 PM100 °FExtremely hot.7 mph35%29.74 "HgN/A
Weather by CustomWeather, © 2016

See weather overviewHow to use our weather pages